Location: Penton Mewsey
(51.2167°N, 1.5167°W)
Time: 00:10:43
(UTC+00:00)

Envisat - Pass Details

Date: 07 March 2021
Orbit: 764 x 766 km, 98.1° (Epoch: 22 April)

Event Time Altitude Azimuth Distance (km) Brightness Sun altitude
Rises 05:47:44 0° 15° (NNE) 3,248 6.5 -8.6°
Reaches altitude 10° 05:50:03 10° 18° (NNE) 2,316 5.8 -8.3°
Maximum altitude 05:55:10 72° 103° (ESE) 809 3.4 -7.5°
Drops below altitude 10° 06:00:13 10° 188° (S) 2,298 5.4 -6.7°
Sets 06:02:31 0° 190° (S) 3,219 6.1 -6.3°
